Folgende Datensätze stehen als ungeprüfte Rohdaten zur Verfügung

ZeitFeinstaubµg/m³
Grafik anzeigen
Lufttemperatur°C
Grafik anzeigen
rel. Luftfeuchte%
Grafik anzeigen
Windrichtung°Windgeschwindigkeitm/s
Grafik anzeigen
Stickstoffdioxidµg/m³
Grafik anzeigen
26.08.2019 06:00:0027,0018,0689,15325,050,5635,75
26.08.2019 05:30:0025,9918,2688,66332,091,1229,66
26.08.2019 05:00:0021,0018,3788,59334,901,4031,12
26.08.2019 04:30:0020,3218,2089,14331,180,9727,72
26.08.2019 04:00:0017,0018,1888,82331,900,2323,28
26.08.2019 03:30:0017,5018,5887,72325,950,9323,97
26.08.2019 03:00:0020,0018,5788,09322,490,8625,14
26.08.2019 02:30:0018,8118,8286,93332,000,8721,17
26.08.2019 02:00:0013,0019,0186,41325,390,7425,52
26.08.2019 01:30:0015,0519,1785,81332,151,2522,12
26.08.2019 01:00:0025,0018,9985,65335,970,5315,24
26.08.2019 00:30:0023,2719,5184,58345,080,5120,57
26.08.2019 00:00:0015,0019,6784,68325,391,1021,06
25.08.2019 23:30:0016,3419,7484,76325,460,9022,85
25.08.2019 23:00:0023,0019,8783,21331,690,4317,55
25.08.2019 22:30:0023,3220,1082,19345,340,5219,67
25.08.2019 22:00:0025,0020,4181,95333,300,5918,98
25.08.2019 21:30:0023,8220,8281,76325,450,8625,82
25.08.2019 21:00:0018,0021,1980,94328,540,6929,17
25.08.2019 20:30:0017,5021,6479,85329,350,6228,44
25.08.2019 20:00:0015,0021,6979,90315,510,1925,18
25.08.2019 19:30:0014,6722,3276,27324,230,0813,35
25.08.2019 19:00:0013,0023,0372,81173,870,0210,11
25.08.2019 18:30:0013,8223,6770,07152,240,158,69
25.08.2019 18:00:0018,0024,2567,89125,290,258,21
25.08.2019 17:30:0017,6624,7865,26110,270,568,45
25.08.2019 17:00:0016,0025,5361,42104,160,748,15
25.08.2019 16:30:0015,5025,6860,07136,520,367,52
25.08.2019 16:00:0013,0025,4759,18129,850,387,45
25.08.2019 15:30:0013,1726,4857,4138,830,337,01
25.08.2019 15:00:0014,0026,3661,47110,490,467,88
25.08.2019 14:30:0014,0025,7062,59139,980,277,25
25.08.2019 14:00:0014,0025,5463,55151,720,387,96
25.08.2019 13:30:0013,5025,3763,58201,610,298,31
25.08.2019 13:00:0011,0024,8164,74290,550,308,82
25.08.2019 12:30:0011,1724,4566,57190,040,499,30
25.08.2019 12:00:0012,0024,0768,23180,920,639,23
25.08.2019 11:30:0012,0023,2669,99212,560,179,88
25.08.2019 11:00:0012,0021,9474,80178,110,3011,42
25.08.2019 10:30:0013,1721,5474,03222,620,1614,74
25.08.2019 10:00:0019,0021,2673,88299,020,3714,07
25.08.2019 09:30:0018,8320,8376,44317,451,3813,30
25.08.2019 09:00:0018,0020,4378,74316,241,2811,13
25.08.2019 08:30:0017,3319,9079,98273,040,3314,96
25.08.2019 08:00:0014,0018,8983,00315,830,939,94
25.08.2019 07:30:0014,0018,4086,78338,220,4116,17
25.08.2019 07:00:0014,0017,6792,39321,840,1216,89
25.08.2019 06:30:0013,5017,4594,28170,840,2314,36
25.08.2019 06:00:0011,0017,3792,53176,520,1914,03
25.08.2019 05:30:0011,5017,6187,56211,530,1414,26
25.08.2019 05:00:0014,0017,8985,76338,120,5215,99
25.08.2019 04:30:0014,3317,5988,62308,810,7213,54
25.08.2019 04:00:0016,0017,3793,56306,380,5514,20
25.08.2019 03:30:0015,1617,1696,92295,620,4613,47
25.08.2019 03:00:0011,0017,2096,07209,310,1913,74
25.08.2019 02:30:0011,3317,8889,7665,900,0813,44
25.08.2019 02:00:0013,0017,7692,23155,070,0515,24
25.08.2019 01:30:0013,0017,8991,91106,850,3416,59
25.08.2019 01:00:0013,0018,0889,90219,670,1116,11
25.08.2019 00:30:0013,6718,4686,6450,920,0917,52
25.08.2019 00:00:0017,0018,7784,07318,731,5117,89
24.08.2019 23:30:0016,3518,8185,11334,112,8722,61
24.08.2019 23:00:0013,0018,3688,11327,651,6812,19
24.08.2019 22:30:0014,0117,9791,70205,960,5714,28
24.08.2019 22:00:0019,0018,9883,58329,330,8618,90
24.08.2019 21:30:0018,1518,4088,5044,370,2921,71
24.08.2019 21:00:0014,0018,0791,61206,630,3721,80
24.08.2019 20:30:0013,1718,0793,28268,380,3023,42
24.08.2019 20:00:009,0018,1293,22176,500,1622,02
24.08.2019 19:30:008,8418,4989,13129,670,4425,36
24.08.2019 19:00:008,0018,5088,53335,900,6726,48
24.08.2019 18:30:008,6618,5288,89317,961,1729,85
24.08.2019 18:00:0012,0019,0385,88340,082,2921,94
24.08.2019 17:30:0011,8319,4383,68318,300,4025,39
24.08.2019 17:00:0011,0020,2577,96333,490,3119,82
24.08.2019 16:30:0012,4921,0369,83162,440,0714,23
24.08.2019 16:00:0020,0021,4170,09324,962,7412,71
24.08.2019 15:30:0020,1721,9565,00318,872,8111,37
24.08.2019 15:00:0021,0022,3263,01319,613,1412,54
24.08.2019 14:30:0021,0023,3261,39275,412,349,10
24.08.2019 14:00:0021,0026,1658,98227,550,727,60
24.08.2019 13:30:0021,5127,0157,12148,600,416,92
24.08.2019 13:00:0024,0027,4455,66144,810,556,97
24.08.2019 12:30:0022,9927,3955,54151,760,577,22
24.08.2019 12:00:0018,0027,0756,98109,360,577,76
24.08.2019 11:30:0018,6826,6159,12156,610,517,92
24.08.2019 11:00:0022,0026,1561,9383,310,618,75
24.08.2019 10:30:0022,5125,5068,09184,250,428,78
24.08.2019 10:00:0025,0025,0068,87338,460,168,27
24.08.2019 09:30:0025,5024,0770,80290,710,3217,11
24.08.2019 09:00:0028,0022,7875,19309,601,0323,08
24.08.2019 08:30:0028,5021,6379,39314,971,0429,21
24.08.2019 08:00:0031,0020,7682,47306,100,7129,13
24.08.2019 07:30:0029,6720,2785,05191,610,1427,11
24.08.2019 07:00:0023,0020,2483,85318,530,6034,88
24.08.2019 06:30:0023,6819,5586,87311,490,5428,92
24.08.2019 06:00:0027,0019,1388,23320,890,2528,41
24.08.2019 05:30:0026,2019,2187,63305,680,2729,48
24.08.2019 05:00:0022,0019,4186,87323,750,5128,96
24.08.2019 04:30:0022,4819,2187,19300,900,2428,33
24.08.2019 04:00:0025,0019,7285,06326,450,5935,17
24.08.2019 03:30:0024,6719,8084,85317,500,6635,99
24.08.2019 03:00:0023,0019,6985,17302,960,4632,99
24.08.2019 02:30:0023,3319,8684,69313,080,5834,33
24.08.2019 02:00:0025,0019,8984,80305,130,5333,85
24.08.2019 01:30:0025,0020,0683,83319,920,3529,82
24.08.2019 01:00:0025,0020,3582,65334,420,8727,36
24.08.2019 00:30:0025,5120,6181,88327,380,7531,29
24.08.2019 00:00:0028,0020,8581,28326,790,9337,80
23.08.2019 23:30:0027,8421,0380,73334,931,1826,47
23.08.2019 23:00:0027,0021,1680,30328,291,1227,55
23.08.2019 22:30:0026,0021,0381,08327,660,8431,25
23.08.2019 22:00:0021,0021,1280,82321,350,9925,44
23.08.2019 21:30:0022,0021,0781,14312,840,6032,09
23.08.2019 21:00:0027,0021,2379,80310,870,1333,87
23.08.2019 20:30:0026,6621,4878,17309,070,4031,39
23.08.2019 20:00:0025,0022,0275,28309,560,4321,34
23.08.2019 19:30:0024,6622,4273,50284,570,0317,46
23.08.2019 19:00:0023,0023,0871,40178,130,4217,64
23.08.2019 18:30:0023,0023,6069,06214,420,2817,24
23.08.2019 18:00:0023,0024,1767,03182,010,4116,68
23.08.2019 17:30:0023,8424,4066,61167,920,3614,87
23.08.2019 17:00:0028,0025,0464,00233,600,5116,11
23.08.2019 16:30:0027,5225,4362,16257,110,4615,05
23.08.2019 16:00:0025,0025,2562,47189,200,5613,17
23.08.2019 15:30:0024,1724,9961,64122,970,5913,06
23.08.2019 15:00:0020,0024,3364,06308,640,6516,04
23.08.2019 14:30:0020,1724,0265,18290,600,7616,54
23.08.2019 14:00:0021,0023,5666,19221,820,1116,24
23.08.2019 13:30:0021,5023,1768,27276,430,6415,97
23.08.2019 13:00:0024,0022,6869,87260,020,5419,33
23.08.2019 12:30:0024,1723,0767,96257,320,2922,81
23.08.2019 12:00:0025,0022,2770,41238,470,2227,99
23.08.2019 11:30:0027,0022,0771,33191,060,4131,09
23.08.2019 11:00:0037,0022,1470,93176,710,3430,20
23.08.2019 10:30:0037,1721,8370,59222,510,2830,09
23.08.2019 10:00:0038,0021,2077,62183,440,5844,99
23.08.2019 09:30:0036,0020,3682,92182,380,3543,81
23.08.2019 09:00:0026,0019,6286,12184,180,5539,94
23.08.2019 08:30:0024,5119,2387,62174,960,3038,72
23.08.2019 08:00:0017,0018,8885,72262,510,2339,14
23.08.2019 07:30:0017,4918,3387,44224,210,2035,44
23.08.2019 07:00:0020,0018,0188,84307,330,6233,22
23.08.2019 06:30:0018,3417,4995,44216,860,1021,63
23.08.2019 06:00:0010,0017,5795,70162,620,0621,44
23.08.2019 05:30:0010,3317,4995,42353,670,0623,11
23.08.2019 05:00:0012,0017,5095,44154,230,0625,66
23.08.2019 04:30:0011,8417,5294,31231,080,0429,81
23.08.2019 04:00:0011,0017,8291,2096,210,0631,36
23.08.2019 03:30:0011,0018,2386,98331,380,1828,09
23.08.2019 03:00:0011,0018,2587,28315,070,6020,80
23.08.2019 02:30:0011,3318,2687,47310,520,5122,54
23.08.2019 02:00:0013,0019,0980,58109,720,0923,77
23.08.2019 01:30:0013,5019,4576,49298,520,2121,69
23.08.2019 01:00:0016,0019,3277,58319,180,7624,97
23.08.2019 00:30:0015,4919,0679,10322,510,7520,99
23.08.2019 00:00:0013,0019,1179,30334,631,1115,17
22.08.2019 23:30:0013,6719,1879,62322,970,9616,12
22.08.2019 23:00:0017,0019,2580,91320,420,9322,29
22.08.2019 22:30:0016,0019,4180,88323,950,7625,84
22.08.2019 22:00:0011,0019,4580,48338,060,3923,29
22.08.2019 21:30:0011,3319,4181,18326,470,7126,38
22.08.2019 21:00:0013,0019,6778,02322,790,1526,45
22.08.2019 20:30:0012,6719,9575,58324,290,0927,71
22.08.2019 20:00:0011,0020,2373,1488,580,0722,22
22.08.2019 19:30:0011,0020,4071,38196,720,2424,00
22.08.2019 19:00:0011,0020,4767,95179,510,2022,36
22.08.2019 18:30:0011,4720,4167,32186,690,2317,23